Flag for Turkey Weather past 2 weeks in Istanbul, Turkey

Now
73 °F

Clear.


Feels Like: 74 °F
Forecast: 70 / 93 °F
Wind: 5 mph from Northeast

Location: Istanbul Ataturk Airport

Current Time: Sep 5, 2015 at 4:38:52 AM

Latest Report: Sep 5, 2015 at 3:50 AM


Visibility: 5 mi

Pressure: 29.95 "Hg

Humidity: 78%

Dew point: 66 °F

Location of IstanbulLocation

Historic Weather in Istanbul — Graph

°F

Istanbul temperature yesterday

Maximum temperature yesterday: 84 °F (at 10:20 AM)
Minimum temperature yesterday: 73 °F (at 5:50 AM)
Average temperature yesterday: 79 °F

Past Weeks' High & Low Weather Summary

 TemperatureHumidityPressure
High93 °F (Sep 1, 2:50 PM)89% (Sep 4, 6:20 AM)30.15 "Hg (Sep 4, 6:20 AM)
Low68 °F (Aug 24, 3:50 AM)19% (Aug 29, 4:20 PM)29.80 "Hg (Sep 3, 3:50 PM)
Average79 °F59%29.99 "Hg
* Reported Aug 21 3:20 AM — Sep 5 3:20 AM, Istanbul, Weather by CustomWeather, © 2015

Note: Actual official high and low records may vary slightly from our data, if they occured in-between our weather recording intervals... More about our weather records

Advertising

Istanbul weather history for previous 24 hours

 ConditionsComfort  
Time TempWeatherWind HumidityBarometerVisibility
3:20 AM
Sat, Sep 5
72 °FPassing clouds.6 mph83%29.95 "HgN/A
2:50 AM72 °FClear.7 mph83%29.95 "Hg10 mi
2:20 AM73 °FClear.3 mph78%29.95 "Hg10 mi
1:50 AM77 °FClear.5 mph74%29.95 "Hg10 mi
1:20 AM75 °FClear.7 mph74%29.92 "Hg10 mi
11:50 PM
Fri, Sep 4
75 °FPassing clouds.7 mph78%29.92 "HgN/A
11:20 PM75 °FPassing clouds.8 mph78%29.92 "HgN/A
10:50 PM77 °FPassing clouds.8 mph74%29.92 "HgN/A
10:20 PM77 °FPassing clouds.9 mph74%29.92 "HgN/A
9:50 PM77 °FPassing clouds.8 mph74%29.92 "HgN/A
9:20 PM79 °FClear.7 mph65%29.92 "Hg10 mi
8:50 PM79 °FClear.6 mph65%29.92 "Hg10 mi
8:20 PM79 °FSunny.8 mph65%29.92 "Hg10 mi
7:50 PM82 °FPassing clouds.8 mph55%29.89 "HgN/A
7:20 PM82 °FPassing clouds.8 mph51%29.89 "HgN/A
6:50 PM84 °FSunny.6 mph45%29.89 "Hg10 mi
6:20 PM81 °FPassing clouds.5 mph70%29.89 "HgN/A
5:50 PM82 °FPassing clouds.6 mph66%29.89 "HgN/A
5:20 PM84 °FSunny.7 mph62%29.89 "Hg10 mi
4:50 PM82 °FPassing clouds.7 mph66%29.89 "HgN/A
4:20 PM84 °FPassing clouds.8 mph62%29.89 "HgN/A
3:50 PM81 °FPassing clouds.10 mph70%29.92 "HgN/A
3:20 PM81 °FPassing clouds.10 mph70%29.92 "HgN/A
2:50 PM82 °FPassing clouds.12 mph66%29.92 "HgN/A
2:20 PM81 °FPassing clouds.12 mph70%29.92 "HgN/A
1:50 PM81 °FPassing clouds.9 mph66%29.92 "HgN/A
1:20 PM81 °FPassing clouds.7 mph66%29.92 "HgN/A
12:50 PM82 °FPassing clouds.7 mph66%29.92 "HgN/A
12:20 PM81 °FPassing clouds.7 mph66%29.92 "HgN/A
11:50 AM81 °FPassing clouds.7 mph66%29.92 "HgN/A
11:20 AM79 °FPassing clouds.7 mph70%29.92 "HgN/A
10:50 AM79 °FScattered clouds.7 mph74%29.92 "HgN/A
10:20 AM84 °FPassing clouds.7 mph55%29.92 "HgN/A
9:50 AM81 °FPassing clouds.7 mph62%29.92 "HgN/A
9:20 AM81 °FScattered clouds.7 mph62%29.92 "HgN/A
8:50 AM79 °FScattered clouds.7 mph70%29.89 "HgN/A
8:20 AM79 °FPassing clouds.7 mph74%29.89 "HgN/A
7:50 AM77 °FPassing clouds.6 mph79%29.89 "HgN/A
7:20 AM77 °FClear.7 mph79%29.89 "Hg10 mi
6:50 AM75 °FClear.7 mph78%29.89 "Hg5 mi
6:20 AM73 °FClear.8 mph89%29.89 "Hg4 mi
5:50 AM73 °FClear.8 mph83%29.86 "Hg4 mi
5:20 AM75 °FPassing clouds.8 mph83%29.86 "Hg4 mi
4:50 AM75 °FPassing clouds.8 mph83%29.86 "HgN/A
4:20 AM75 °FClear.8 mph83%29.86 "Hg4 mi
Weather by CustomWeather, © 2015

See weather overviewHow to use our weather pages